Regional Weather Roundup
Issued by NWS Charleston, WV

Home | Current Version | Previous Version | Graphics & Text | Print | Product List | Glossary On
Versions: 1 2 3 4 5 6 7 8 9 10 11 12 13 14 15 16 17 18 19 20 21 22 23 24 25 26 27 28 29 30 31 32 33 34 35 36 37 38 39 40 41 42 43 44 45 46 47 48 49 50
443
ASUS41 KRLX 110910
RWRRLX
West Virginia Regional Weather Roundup
National Weather Service Charleston WV
400 AM EST THU FEB 11 2016

Note: "fair" indicates few or no clouds below 12,000 feet with no
significant weather and/or obstructions to visibility.

WVZ003-111000-
Northern Panhandle of West Virginia

CITY           SKY/WX    TMP DP  RH WIND       PRES   REMARKS
WHEELING       CLOUDY    12   5  73 W17       29.99S WCI  -5
$$

WVZ009-111000-
Northwest West Virginia

CITY           SKY/WX    TMP DP  RH WIND       PRES   REMARKS
PARKERSBURG    CLOUDY    12   4  70 W10G18    30.12S WCI  -1
$$

WVZ006-111000-
Western West Virginia

CITY           SKY/WX    TMP DP  RH WIND       PRES   REMARKS
HUNTINGTON     CLOUDY    17   9  70 N7        30.14S WCI   8
$$

WVZ015-111000-
West Central West Virginia

CITY           SKY/WX    TMP DP  RH WIND       PRES   REMARKS
CHARLESTON     LGT SNOW  16   6  65 W13G21    30.12R WCI   2
$$

WVZ022-031-111000-
North Central West Virginia

CITY           SKY/WX    TMP DP  RH WIND       PRES   REMARKS
CLARKSBURG     FLURRIES  12   6  77 W9        30.03S WCI   0
MORGANTOWN     CLOUDY    12   3  67 SW7       30.01S WCI   1
$$

WVZ025-035-042-045-111000-
Southern West Virginia

CITY           SKY/WX    TMP DP  RH WIND       PRES   REMARKS
BECKLEY        FLURRIES  11   4  73 W13G20    29.97S WCI  -4
LOGAN          CLOUDY    16   7  67 W9G15     30.07S WCI   4
BLUEFIELD      LGT SNOW  10   5  80 W12G21    29.95S WCI  -5
LEWISBURG      CLOUDY    14   5  68 W3        29.97R
$$

WVZ047-111000-
Northern Mountains of West Virginia

CITY           SKY/WX    TMP DP  RH WIND       PRES   REMARKS
ELKINS         LGT SNOW  10   1  67 W12G21    29.97S WCI  -5
$$

WVZ052-111000-
Eastern Panhandle of West Virginia

CITY           SKY/WX    TMP DP  RH WIND       PRES   REMARKS
MARTINSBURG    CLOUDY    18   3  52 W9        29.97R WCI   7
PETERSBURG     CLOUDY    17   2  51 CALM      30.01R
$$




USA.gov is the U.S. government's official web portal to all federal, state and local government web resources and services.